Flag for Canada Weather past 2 weeks in Camrose, Alberta, Canada

Now
75 °F

Partly sunny.


Feels Like: 77 °F
Forecast: 58 / 88 °F
Wind: 7 mph from Southeast

Location: Edmonton International

Current Time: Jul 29, 2014 at 9:38:41 PM

Latest Report: Jul 29, 2014 at 9:00 PM


Visibility: 15 mi

Pressure: 30.06 "Hg

Humidity: 69%

Dew point: 64 °F

Location of CamroseLocation

Historic Weather in Camrose — Graph

°F

Camrose temperature yesterday

Maximum temperature yesterday: 81 °F (at 4:00 PM)
Minimum temperature yesterday: 52 °F (at 5:00 AM)
Average temperature yesterday: 68 °F

Past Weeks' High & Low Weather Summary

 TemperatureHumidityPressure
High82 °F (Jul 15, 4:00 PM)100% (Jul 16, 7:00 AM)30.24 "Hg (Jul 16, 7:00 AM)
Low39 °F (Jul 21, 6:00 AM)34% (Jul 24, 4:00 PM)29.52 "Hg (Jul 24, 6:00 PM)
Average62 °F79%29.90 "Hg
* Reported Jul 14 8:00 PM — Jul 29 8:00 PM, Camrose, Weather by CustomWeather, © 2014

Note: Actual official high and low records may vary slightly from our data, if they occured in-between our weather recording intervals... More about our weather records

Advertising

Camrose weather history for previous 24 hours

 ConditionsComfort  
Time TempWeatherWind HumidityBarometerVisibility
8:00 PM
Jul 29
75 °FPartly sunny.6 mph69%30.06 "Hg15 mi
7:00 PM81 °FPartly sunny.7 mph62%30.05 "Hg15 mi
6:00 PM82 °FScattered clouds.10 mph55%30.06 "Hg15 mi
5:00 PM82 °FPassing clouds.7 mph55%30.08 "Hg15 mi
4:00 PM82 °FPassing clouds.6 mph55%30.09 "Hg15 mi
3:00 PM82 °FPassing clouds.9 mph55%30.10 "Hg15 mi
2:00 PM81 °FPassing clouds.8 mph54%30.11 "Hg12 mi
1:00 PM81 °FPassing clouds.8 mph58%30.10 "Hg12 mi
12:00 PM79 °FPassing clouds.9 mph61%30.11 "Hg12 mi
11:00 AM75 °FSunny.3 mph69%30.11 "Hg12 mi
10:00 AM70 °FPassing clouds.No wind78%30.12 "Hg15 mi
9:00 AM66 °FPassing clouds.3 mph83%30.13 "Hg12 mi
8:00 AM63 °FPassing clouds.7 mph88%30.14 "Hg12 mi
7:00 AM59 °FPassing clouds.8 mph94%30.14 "Hg15 mi
6:00 AM54 °FPassing clouds.7 mph100%30.14 "Hg12 mi
5:00 AM57 °FPartly cloudy.8 mph94%30.12 "Hg15 mi
4:00 AM55 °FPassing clouds.6 mph94%30.11 "Hg15 mi
3:00 AM57 °FFog.3 mph100%30.12 "Hg12 mi
2:00 AM59 °FPassing clouds.7 mph94%30.13 "Hg15 mi
1:00 AM61 °FPassing clouds.5 mph94%30.14 "Hg15 mi
12:00 AM64 °FPassing clouds.7 mph88%30.13 "Hg15 mi
11:00 PM
Jul 28
68 °FPassing clouds.8 mph83%30.13 "Hg15 mi
10:00 PM70 °FPassing clouds.8 mph78%30.13 "Hg15 mi
9:00 PM73 °FPassing clouds.8 mph74%30.13 "Hg15 mi
Weather by CustomWeather, © 2014

See weather overviewHow to use our weather pages